User: anonymous   Login
Location: Pine Mountain Observatory
(43.7910°N, 120.9377°W)
Time: 12:20:07
(UTC-07:00)
Language:

Tiros 1 - Orbit

View from above orbital plane
View from above orbital plane
View from above satellite
View from above satellite

Ground track
Ground track

The orbit data is extracted from the following two-line orbital elements,

1    29U 60002B   19145.92509241 -.00000137 +00000-0 +10713-4 0  9999
2    29 048.3805 342.1276 0023986 009.3679 350.7676 14.74304840161218
Epoch (UTC): 25 May 2019 22:12:07
Eccentricity: 0.0023986
inclination: 48.3805°
perigee height: 630 km
apogee height: 664 km
right ascension of ascending node: 342.1276°
argument of perigee: 9.3679°
revolutions per day: 14.74304840
mean anomaly at epoch: 350.7676°
orbit number at epoch: 16121

The dashed part of the orbit path shows where the satellite is in the earth's shadow,  

DLR